English version Home page |
Updated on June 14, 2021 |
|
軌道要素Epoch 2019 July 16.0 TT = JDT 2458680.5 T 2019 Aug. 1.14885 TT Bell q 1.5289096 (2000.0) P Q n 0.04343820 Peri. 189.62066 +0.24511798 -0.82475481 a 8.0147169 Node 247.69684 +0.92209088 +0.36067963 e 0.8092372 Incl. 33.42269 +0.29944212 -0.43553382 P 22.7 From 72 observations 2019 Oct. 8-2020 Feb. 24, mean residual 0".5.
|
光度変化m1 = 14.0 + 5 logΔ + 10.0 log r
|
軌道要素はM.P.E.C. 2020-E26に掲載されたものです。
|